Location: Moonridge Observatory
(39.2268°N, 77.7914°W)
Time: 11:34:50
(UTC-04:00)

CZ-2C R/B - Visible Passes

Search period start: 27 April 2015 00:00
Search period end: 07 May 2015 00:00
Orbit: 704 x 909 km, 98.1° (Epoch: 26 April)

Date Brightness Start Highest point End Pass type
(mag) Time Alt. Az. Time Alt. Az. Time Alt. Az.
27 Apr 4.2 02:47:09 37° ENE 02:47:09 37° ENE 02:51:11 10° N visible
27 Apr 4.5 04:28:13 18° WNW 04:28:13 18° WNW 04:30:21 10° NW visible
28 Apr 4.9 02:22:04 22° ENE 02:22:10 22° ENE 02:25:59 10° NNE visible
28 Apr 3.9 04:03:08 31° WNW 04:03:08 31° WNW 04:06:24 10° NNW visible
29 Apr 5.5 01:56:59 13° ENE 01:57:46 13° ENE 02:00:12 10° NNE visible
29 Apr 3.2 03:38:04 53° NW 03:38:04 53° NW 03:42:02 10° NNW visible
30 Apr 3.2 03:12:59 64° NNE 03:12:59 64° NNE 03:17:24 10° N visible
30 Apr 5.0 04:54:03 10° WNW 04:54:03 10° WNW 04:54:11 10° WNW visible
01 May 4.0 02:47:55 40° ENE 02:47:55 40° ENE 02:52:32 10° N visible
01 May 4.4 04:28:59 19° WNW 04:28:59 19° WNW 04:31:35 10° NW visible
02 May 4.8 02:22:50 23° ENE 02:23:24 24° ENE 02:27:23 10° NNE visible
02 May 3.7 04:03:54 33° WNW 04:03:54 33° WNW 04:07:40 10° NNW visible
03 May 5.4 01:57:46 13° E 01:59:00 14° ENE 02:01:43 10° NNE visible
03 May 3.0 03:38:50 59° WNW 03:38:50 59° WNW 03:43:21 10° NNW visible
04 May 3.0 03:13:45 74° ENE 03:13:45 74° ENE 03:18:45 10° N visible
04 May 5.0 04:54:49 10° W 04:54:49 10° W 04:55:12 10° WNW visible
05 May 3.9 02:48:41 41° E 02:49:07 42° ENE 02:53:54 10° N visible
05 May 4.4 04:29:46 19° W 04:29:46 19° W 04:32:50 10° NW visible
06 May 4.7 02:23:37 23° E 02:24:38 25° ENE 02:28:48 10° NNE visible
06 May 3.7 04:04:42 33° W 04:04:42 33° W 04:08:58 10° NNW visible
